Time,TemperatureF,DewpointF,PressureIn,WindDirection,WindDirectionDegrees,WindSpeedMPH,WindSpeedGustMPH,Humidity,HourlyPrecipIn,Conditions,Clouds,dailyrainin,SolarRadiationWatts/m^2,SoftwareType,DateUTC
2013-10-06 00:02:00,41.0,41.0,-100.00,NNW,336,0.0,1.0,99,0.02,,,0.07,0.000000,,2013-10-06 08:02:00,
2013-10-06 00:11:00,41.0,41.0,-100.00,NNW,336,0.0,1.0,99,0.02,,,0.07,0.000000,,2013-10-06 08:11:00,
2013-10-06 00:21:00,41.0,41.0,-100.00,NNW,336,0.0,1.0,99,0.02,,,0.07,0.000000,,2013-10-06 08:21:00,
2013-10-06 00:53:00,41.0,41.0,-100.00,NW,316,0.0,1.0,100,-99.99,,,0.00,0.000000,,2013-10-06 08:53:00,
2013-10-06 01:01:00,41.0,41.0,-100.00,NW,316,0.0,1.0,100,-99.99,,,0.00,0.000000,,2013-10-06 09:01:00,
2013-10-06 01:11:00,41.0,41.0,-100.00,NW,316,0.0,1.0,100,-99.99,,,0.00,0.000000,,2013-10-06 09:11:00,
2013-10-06 01:22:00,41.0,41.0,-100.00,NW,316,0.0,1.0,100,-99.99,,,0.00,0.000000,,2013-10-06 09:22:00,
2013-10-06 01:53:00,41.0,41.0,-100.00,North,10,0.0,1.0,100,0.00,,,0.00,0.000000,,2013-10-06 09:53:00,
2013-10-06 02:03:00,41.0,41.0,-100.00,North,10,0.0,1.0,100,0.00,,,0.00,0.000000,,2013-10-06 10:03:00,
2013-10-06 02:13:00,41.0,41.0,-100.00,North,10,0.0,1.0,100,0.00,,,0.00,0.000000,,2013-10-06 10:13:00,
2013-10-06 02:23:00,41.0,41.0,-100.00,North,10,0.0,1.0,100,0.00,,,0.00,0.000000,,2013-10-06 10:23:00,
2013-10-06 02:53:00,39.0,39.0,-100.00,NNE,26,0.0,0.0,100,0.00,,,0.00,0.000000,,2013-10-06 10:53:00,
2013-10-06 03:02:00,39.0,39.0,-100.00,NNE,26,0.0,0.0,100,0.00,,,0.00,0.000000,,2013-10-06 11:02:00,
2013-10-06 03:11:00,39.0,39.0,-100.00,NNE,26,0.0,0.0,100,0.00,,,0.00,0.000000,,2013-10-06 11:11:00,
2013-10-06 03:21:00,39.0,39.0,-100.00,NNE,26,0.0,0.0,100,0.00,,,0.00,0.000000,,2013-10-06 11:21:00,
2013-10-06 03:52:00,39.0,39.0,-100.00,ENE,58,0.0,1.0,100,0.00,,,0.00,0.000000,,2013-10-06 11:52:00,
2013-10-06 04:02:00,39.0,39.0,-100.00,ENE,58,0.0,1.0,100,0.00,,,0.00,0.000000,,2013-10-06 12:02:00,
2013-10-06 04:12:00,39.0,39.0,-100.00,ENE,58,0.0,1.0,100,0.00,,,0.00,0.000000,,2013-10-06 12:12:00,
2013-10-06 04:21:00,39.0,39.0,-100.00,ENE,58,0.0,1.0,100,0.00,,,0.00,0.000000,,2013-10-06 12:21:00,
2013-10-06 04:52:00,39.0,39.0,-100.00,NW,322,0.0,0.0,100,0.00,,,0.00,0.000000,,2013-10-06 12:52:00,
2013-10-06 05:02:00,39.0,39.0,-100.00,NW,322,0.0,0.0,100,0.00,,,0.00,0.000000,,2013-10-06 13:02:00,
2013-10-06 05:11:00,39.0,39.0,-100.00,NW,322,0.0,0.0,100,0.00,,,0.00,0.000000,,2013-10-06 13:11:00,
2013-10-06 05:21:00,39.0,39.0,-100.00,NW,322,0.0,0.0,100,0.00,,,0.00,0.000000,,2013-10-06 13:21:00,
2013-10-06 05:52:00,37.0,37.0,-100.00,NNW,342,0.0,0.0,100,0.00,,,0.00,0.000000,,2013-10-06 13:52:00,
2013-10-06 06:02:00,37.0,37.0,-100.00,NNW,342,0.0,0.0,100,0.00,,,0.00,0.000000,,2013-10-06 14:02:00,
2013-10-06 06:11:00,37.0,37.0,-100.00,NNW,342,0.0,0.0,100,0.00,,,0.00,0.000000,,2013-10-06 14:11:00,
2013-10-06 06:22:00,37.0,37.0,-100.00,NNW,342,0.0,0.0,100,0.00,,,0.00,0.000000,,2013-10-06 14:22:00,
2013-10-06 06:52:00,36.0,36.0,-100.00,NNW,335,0.0,0.0,100,0.00,,,0.00,0.000000,,2013-10-06 14:52:00,
2013-10-06 07:02:00,36.0,36.0,-100.00,NNW,335,0.0,0.0,100,0.00,,,0.00,0.000000,,2013-10-06 15:02:00,
2013-10-06 07:11:00,36.0,36.0,-100.00,NNW,335,0.0,0.0,100,0.00,,,0.00,0.000000,,2013-10-06 15:11:00,
2013-10-06 07:22:00,36.0,36.0,-100.00,NNW,335,0.0,0.0,100,0.00,,,0.00,0.000000,,2013-10-06 15:22:00,
2013-10-06 07:54:00,34.0,34.0,-100.00,NNW,330,0.0,1.0,100,0.00,,,-99.99,0.000000,,2013-10-06 15:54:00,
2013-10-06 08:03:00,34.0,34.0,-100.00,NNW,330,0.0,1.0,100,0.00,,,-99.99,0.000000,,2013-10-06 16:03:00,
2013-10-06 08:12:00,34.0,34.0,-100.00,NNW,330,0.0,1.0,100,0.00,,,-99.99,0.000000,,2013-10-06 16:12:00,
2013-10-06 08:23:00,34.0,34.0,-100.00,NNW,330,0.0,1.0,100,0.00,,,-99.99,0.000000,,2013-10-06 16:23:00,
2013-10-06 08:53:00,36.0,36.0,-100.00,North,349,2.0,4.0,100,0.00,,,0.00,6.000000,,2013-10-06 16:53:00,
2013-10-06 09:02:00,36.0,36.0,-100.00,North,349,2.0,4.0,100,0.00,,,0.00,6.000000,,2013-10-06 17:02:00,
2013-10-06 09:12:00,36.0,36.0,-100.00,North,349,2.0,4.0,100,0.00,,,0.00,6.000000,,2013-10-06 17:12:00,
2013-10-06 09:22:00,36.0,36.0,-100.00,North,349,2.0,4.0,100,0.00,,,0.00,6.000000,,2013-10-06 17:22:00,
2013-10-06 09:52:00,39.0,34.0,-100.00,NW,310,3.0,8.0,81,0.00,,,-99.99,39.000000,,2013-10-06 17:52:00,
2013-10-06 10:02:00,39.0,34.0,-100.00,NW,310,3.0,8.0,81,0.00,,,-99.99,39.000000,,2013-10-06 18:02:00,
2013-10-06 10:12:00,39.0,34.0,-100.00,NW,310,3.0,8.0,81,0.00,,,-99.99,39.000000,,2013-10-06 18:12:00,
2013-10-06 10:21:00,39.0,34.0,-100.00,NW,310,3.0,8.0,81,0.00,,,-99.99,39.000000,,2013-10-06 18:21:00,
2013-10-06 10:52:00,41.0,35.0,-100.00,NW,307,4.0,8.0,78,0.00,,,0.00,52.000000,,2013-10-06 18:52:00,
2013-10-06 11:01:00,41.0,35.0,-100.00,NW,307,4.0,8.0,78,0.00,,,0.00,52.000000,,2013-10-06 19:01:00,
2013-10-06 11:11:00,41.0,35.0,-100.00,NW,307,4.0,8.0,78,0.00,,,0.00,52.000000,,2013-10-06 19:11:00,
2013-10-06 11:22:00,41.0,35.0,-100.00,NW,307,4.0,8.0,78,0.00,,,0.00,52.000000,,2013-10-06 19:22:00,
2013-10-06 11:53:00,41.0,34.0,-100.00,WNW,298,5.0,10.0,75,0.00,,,0.00,81.000000,,2013-10-06 19:53:00,
2013-10-06 12:02:00,41.0,34.0,-100.00,WNW,298,5.0,10.0,75,0.00,,,0.00,81.000000,,2013-10-06 20:02:00,
2013-10-06 12:11:00,41.0,34.0,-100.00,WNW,298,5.0,10.0,75,0.00,,,0.00,81.000000,,2013-10-06 20:11:00,
2013-10-06 12:22:00,41.0,34.0,-100.00,WNW,298,5.0,10.0,75,0.00,,,0.00,81.000000,,2013-10-06 20:22:00,
2013-10-06 12:52:00,43.0,33.0,-100.00,WNW,302,4.0,10.0,67,0.00,,,0.00,217.000000,,2013-10-06 20:52:00,
2013-10-06 13:01:00,43.0,33.0,-100.00,WNW,302,4.0,10.0,67,0.00,,,0.00,217.000000,,2013-10-06 21:01:00,
2013-10-06 13:11:00,43.0,33.0,-100.00,WNW,302,4.0,10.0,67,0.00,,,0.00,217.000000,,2013-10-06 21:11:00,
2013-10-06 13:22:00,43.0,33.0,-100.00,WNW,302,4.0,10.0,67,0.00,,,0.00,217.000000,,2013-10-06 21:22:00,
2013-10-06 13:24:00,48.0,32.0,-100.00,NNW,335,3.0,6.0,53,0.00,,,0.00,285.000000,,2013-10-06 21:24:00,
2013-10-06 13:54:00,48.0,32.0,-100.00,NNW,335,3.0,6.0,53,0.00,,,0.00,285.000000,,2013-10-06 21:54:00,
2013-10-06 14:03:00,48.0,32.0,-100.00,NNW,335,3.0,6.0,53,0.00,,,0.00,285.000000,,2013-10-06 22:03:00,
2013-10-06 14:13:00,48.0,32.0,-100.00,NNW,335,3.0,6.0,53,0.00,,,0.00,285.000000,,2013-10-06 22:13:00,
2013-10-06 14:53:00,50.0,37.0,-100.00,NW,311,3.0,6.0,60,0.00,,,0.00,241.000000,,2013-10-06 22:53:00,
2013-10-06 15:03:00,50.0,37.0,-100.00,NW,311,3.0,6.0,60,0.00,,,0.00,241.000000,,2013-10-06 23:03:00,
2013-10-06 15:12:00,50.0,37.0,-100.00,NW,311,3.0,6.0,60,0.00,,,0.00,241.000000,,2013-10-06 23:12:00,
2013-10-06 15:22:00,50.0,37.0,-100.00,NW,311,3.0,6.0,60,0.00,,,0.00,241.000000,,2013-10-06 23:22:00,
2013-10-06 15:53:00,50.0,34.0,-100.00,WNW,300,2.0,5.0,54,0.00,,,0.00,227.000000,,2013-10-06 23:53:00,
2013-10-06 16:02:00,50.0,34.0,-100.00,WNW,300,2.0,5.0,54,0.00,,,0.00,227.000000,,2013-10-07 00:02:00,
2013-10-06 16:12:00,50.0,34.0,-100.00,WNW,300,2.0,5.0,54,0.00,,,0.00,227.000000,,2013-10-07 00:12:00,
2013-10-06 16:21:00,50.0,34.0,-100.00,WNW,300,2.0,5.0,54,0.00,,,0.00,227.000000,,2013-10-07 00:21:00,
2013-10-06 16:52:00,50.0,38.0,-100.00,WNW,299,3.0,6.0,64,0.00,,,0.00,169.000000,,2013-10-07 00:52:00,
2013-10-06 17:02:00,50.0,38.0,-100.00,WNW,299,3.0,6.0,64,0.00,,,0.00,169.000000,,2013-10-07 01:02:00,
2013-10-06 17:11:00,50.0,38.0,-100.00,WNW,299,3.0,6.0,64,0.00,,,0.00,169.000000,,2013-10-07 01:11:00,
2013-10-06 17:21:00,50.0,38.0,-100.00,WNW,299,3.0,6.0,64,0.00,,,0.00,169.000000,,2013-10-07 01:21:00,
2013-10-06 17:53:00,45.0,40.0,-100.00,NW,326,1.0,3.0,84,0.00,,,0.00,23.000000,,2013-10-07 01:53:00,
2013-10-06 18:02:00,45.0,40.0,-100.00,NW,326,1.0,3.0,84,0.00,,,0.00,23.000000,,2013-10-07 02:02:00,
2013-10-06 18:12:00,45.0,40.0,-100.00,NW,326,1.0,3.0,84,0.00,,,0.00,23.000000,,2013-10-07 02:12:00,
2013-10-06 18:22:00,45.0,40.0,-100.00,NW,326,1.0,3.0,84,0.00,,,0.00,23.000000,,2013-10-07 02:22:00,
2013-10-06 18:53:00,43.0,41.0,-100.00,NW,311,0.0,1.0,93,0.00,,,0.00,17.000000,,2013-10-07 02:53:00,
2013-10-06 19:02:00,43.0,41.0,-100.00,NW,311,0.0,1.0,93,0.00,,,0.00,17.000000,,2013-10-07 03:02:00,
2013-10-06 19:12:00,43.0,41.0,-100.00,NW,311,0.0,1.0,93,0.00,,,0.00,17.000000,,2013-10-07 03:12:00,
2013-10-06 19:22:00,43.0,41.0,-100.00,NW,311,0.0,1.0,93,0.00,,,0.00,17.000000,,2013-10-07 03:22:00,
2013-10-06 19:24:00,39.0,37.0,-100.00,WSW,247,0.0,2.0,91,0.00,,,0.00,1.000000,,2013-10-07 03:24:00,
2013-10-06 19:54:00,39.0,37.0,-100.00,WSW,247,0.0,2.0,91,0.00,,,0.00,1.000000,,2013-10-07 03:54:00,
2013-10-06 20:04:00,39.0,37.0,-100.00,WSW,247,0.0,2.0,91,0.00,,,0.00,1.000000,,2013-10-07 04:04:00,
2013-10-06 20:13:00,39.0,37.0,-100.00,WSW,247,0.0,2.0,91,0.00,,,0.00,1.000000,,2013-10-07 04:13:00,
2013-10-06 20:53:00,37.0,36.0,-100.00,NNE,22,1.0,3.0,95,0.00,,,0.00,0.000000,,2013-10-07 04:53:00,
2013-10-06 21:03:00,37.0,36.0,-100.00,NNE,22,1.0,3.0,95,0.00,,,0.00,0.000000,,2013-10-07 05:03:00,
2013-10-06 21:13:00,37.0,36.0,-100.00,NNE,22,1.0,3.0,95,0.00,,,0.00,0.000000,,2013-10-07 05:13:00,
2013-10-06 21:22:00,37.0,36.0,-100.00,NNE,22,1.0,3.0,95,0.00,,,0.00,0.000000,,2013-10-07 05:22:00,
2013-10-06 21:52:00,36.0,35.0,-100.00,WNW,297,0.0,1.0,97,0.00,,,0.00,0.000000,,2013-10-07 05:52:00,
2013-10-06 22:03:00,36.0,35.0,-100.00,WNW,297,0.0,1.0,97,0.00,,,0.00,0.000000,,2013-10-07 06:03:00,
2013-10-06 22:12:00,36.0,35.0,-100.00,WNW,297,0.0,1.0,97,0.00,,,0.00,0.000000,,2013-10-07 06:12:00,
2013-10-06 22:21:00,36.0,35.0,-100.00,WNW,297,0.0,1.0,97,0.00,,,0.00,0.000000,,2013-10-07 06:21:00,
2013-10-06 22:52:00,36.0,35.0,-100.00,WNW,285,0.0,2.0,98,0.00,,,-99.99,0.000000,,2013-10-07 06:52:00,
2013-10-06 23:01:00,36.0,35.0,-100.00,WNW,285,0.0,2.0,98,0.00,,,-99.99,0.000000,,2013-10-07 07:01:00,
2013-10-06 23:12:00,36.0,35.0,-100.00,WNW,285,0.0,2.0,98,0.00,,,-99.99,0.000000,,2013-10-07 07:12:00,
2013-10-06 23:22:00,36.0,35.0,-100.00,WNW,285,0.0,2.0,98,0.00,,,-99.99,0.000000,,2013-10-07 07:22:00,
2013-10-06 23:52:00,34.0,34.0,-100.00,NW,306,0.0,1.0,99,0.00,,,-99.99,0.000000,,2013-10-07 07:52:00,